TimeMST,TemperatureF,Dew PointF,Humidity,Sea Level PressureIn,VisibilityMPH,Wind Direction,Wind SpeedMPH,Gust SpeedMPH,PrecipitationIn,Events,Conditions,WindDirDegrees,DateUTC
12:53 AM,15.1,8.1,74,30.12,10.0,West,6.9,-,N/A,,Clear,270,2014-02-11 07:53:00
1:53 AM,18.0,10.0,71,30.09,10.0,SSW,11.5,-,N/A,,Clear,200,2014-02-11 08:53:00
2:53 AM,17.1,10.0,74,30.09,10.0,SSW,9.2,-,N/A,,Clear,210,2014-02-11 09:53:00
3:53 AM,19.0,10.9,71,30.08,10.0,SW,17.3,-,N/A,,Clear,230,2014-02-11 10:53:00
4:53 AM,17.1,9.0,71,30.09,10.0,SSW,11.5,-,N/A,,Clear,210,2014-02-11 11:53:00
5:53 AM,17.1,10.0,74,30.11,10.0,SW,15.0,-,N/A,,Clear,230,2014-02-11 12:53:00
6:53 AM,19.0,9.0,65,30.09,10.0,SW,18.4,-,N/A,,Clear,220,2014-02-11 13:53:00
7:53 AM,23.0,10.0,58,30.09,10.0,SSW,10.4,-,N/A,,Clear,210,2014-02-11 14:53:00
8:53 AM,23.0,12.0,63,30.07,10.0,WSW,27.6,-,N/A,,Clear,240,2014-02-11 15:53:00
9:53 AM,26.1,14.0,60,30.06,10.0,SW,29.9,36.8,N/A,,Clear,220,2014-02-11 16:53:00
11:53 AM,28.9,16.0,58,29.93,10.0,SW,26.5,35.7,N/A,,Unknown,220,2014-02-11 18:53:00
12:53 PM,30.0,19.0,64,29.90,9.0,WSW,31.1,-,N/A,,Clear,250,2014-02-11 19:53:00
1:53 PM,30.9,18.0,59,29.88,9.0,WSW,34.5,-,N/A,,Clear,250,2014-02-11 20:53:00
2:53 PM,30.0,17.1,59,29.88,10.0,WSW,21.9,-,N/A,,Partly Cloudy,240,2014-02-11 21:53:00
3:53 PM,28.9,18.0,64,29.88,5.0,West,32.2,46.0,N/A,,Haze,270,2014-02-11 22:53:00
4:53 PM,28.9,18.0,64,29.92,10.0,West,20.7,-,N/A,,Clear,260,2014-02-11 23:53:00
5:53 PM,26.1,18.0,71,29.90,4.0,West,36.8,47.2,0.00,,Clear,270,2014-02-12 00:53:00
6:53 PM,26.1,17.1,69,29.91,10.0,West,33.4,40.3,0.00,,Clear,270,2014-02-12 01:53:00
7:53 PM,26.1,18.0,71,29.95,10.0,West,24.2,-,N/A,,Clear,270,2014-02-12 02:53:00
8:53 PM,24.1,18.0,77,29.98,10.0,West,18.4,-,N/A,,Partly Cloudy,270,2014-02-12 03:53:00
9:53 PM,23.0,16.0,74,30.00,10.0,West,20.7,-,N/A,,Clear,280,2014-02-12 04:53:00
10:53 PM,23.0,16.0,74,30.03,10.0,WNW,16.1,-,N/A,,Mostly Cloudy,290,2014-02-12 05:53:00
11:53 PM,25.0,19.0,78,30.10,8.0,NW,25.3,-,0.00,Snow,Light Snow,310,2014-02-12 06:53:00